DW6440 Weather Reports


time (UTC)temp
C
wind
direction
speed
KPH
gust
KPH
rain 1hr
cm
rain 24hr
cm
rain mn
cm
humidity
%
barometer
mb
20260505040013 16 132 3.2 8.0 0.00 0.00 0.00 59 1009.9
20260505035508 16 149 3.2 9.7 0.00 0.00 0.00 59 1009.8
20260505035005 16 157 4.8 12.9 0.00 0.00 0.00 59 1009.8
20260505034459 16 145 4.8 12.9 0.00 0.00 0.00 58 1009.6
20260505033952 16 167 3.2 11.3 0.00 0.00 0.00 58 1009.6
20260505033447 16 140 3.2 6.4 0.00 0.00 0.00 58 1009.6
20260505032939 16 140 3.2 14.5 0.00 0.00 0.00 57 1009.7
20260505032438 16 140 6.4 14.5 0.00 0.00 0.00 56 1009.8
20260505031933 16 123 6.4 19.3 0.00 0.00 0.00 56 1009.8
20260505031433 17 154 6.4 12.9 0.00 0.00 0.00 55 1009.9
20260505031425 16 195 6.4 19.3 0.00 0.00 0.00 56 1009.9
20260505030416 17 147 6.4 12.9 0.00 0.00 0.00 55 1009.8
20260505025904 16 148 4.8 12.9 0.00 0.00 0.00 55 1009.9
20260505025619 17 197 4.8 16.1 0.00 0.00 0.00 55 1009.7
20260505024853 17 182 4.8 16.1 0.00 0.00 0.00 55 1009.7
20260505024351 17 118 4.8 17.7 0.00 0.00 0.00 55 1009.7
20260505023841 17 148 4.8 14.5 0.00 0.00 0.00 55 1009.8
20260505023334 17 165 4.8 12.9 0.00 0.00 0.00 54 1009.8
20260505022829 17 161 4.8 19.3 0.00 0.00 0.00 54 1009.8
20260505022807 17 138 6.4 19.3 0.00 0.00 0.00 54 1009.8
20260505021818 17 138 6.4 12.9 0.00 0.00 0.00 54 1009.8
20260505021311 17 160 6.4 12.9 0.00 0.00 0.00 54 1009.9
20260505021027 17 115 4.8 12.9 0.00 0.00 0.00 54 1010.0
20260505020302 17 173 3.2 9.7 0.00 0.00 0.00 54 1010.0
20260505020011 17 145 4.8 12.9 0.00 0.00 0.00 54 1010.0
20260505015248 17 148 4.8 20.9 0.00 0.00 0.00 54 1010.0
20260505014743 17 167 4.8 20.9 0.00 0.00 0.00 54 1009.9
20260505014235 17 153 3.2 11.3 0.00 0.00 0.00 54 1010.0
20260505013954 17 140 3.2 11.3 0.00 0.00 0.00 53 1010.0
20260505013223 17 150 3.2 8.0 0.00 0.00 0.00 52 1010.0
20260505012716 17 151 3.2 11.3 0.00 0.00 0.00 52 1009.9
20260505012434 17 133 4.8 14.5 0.00 0.00 0.00 51 1009.7
20260505011716 17 135 4.8 14.5 0.00 0.00 0.00 50 1009.7
20260505011419 18 189 4.8 16.1 0.00 0.00 0.00 49 1009.6
20260505010705 18 154 6.4 16.1 0.00 0.00 0.00 49 1009.6
20260505010148 18 145 4.8 14.5 0.00 0.00 0.00 48 1009.6
20260505005642 18 151 4.8 16.1 0.00 0.00 0.00 48 1009.5
20260505005136 18 168 6.4 16.1 0.00 0.00 0.00 47 1009.5
20260505004857 18 181 4.8 14.5 0.00 0.00 0.00 47 1009.5
20260505004341 18 151 4.8 14.5 0.00 0.00 0.00 47 1009.5
20260505003616 18 169 3.2 12.9 0.00 0.00 0.00 47 1009.4
20260505003110 18 173 3.2 11.3 0.00 0.00 0.00 47 1009.4
20260505002606 18 150 3.2 11.3 0.00 0.00 0.00 46 1009.3
20260505002057 18 146 3.2 11.3 0.00 0.00 0.00 46 1009.3
20260505001558 18 154 4.8 11.3 0.00 0.00 0.00 46 1009.2
20260505001315 18 160 4.8 9.7 0.00 0.00 0.00 45 1009.2
20260505000541 18 217 3.2 12.9 0.00 0.00 0.00 45 1009.2
20260504235532 19 191 4.8 11.3 0.00 0.00 0.00 46 1009.2
20260504235259 19 173 4.8 14.5 0.00 0.00 0.00 45 1009.2
20260504234517 20 163 4.8 14.5 0.00 0.00 0.00 44 1009.1
20260504234012 20 155 6.4 22.5 0.00 0.00 0.00 44 1009.1
20260504233504 20 161 8.0 22.5 0.00 0.00 0.00 43 1009.2
20260504233000 20 147 8.0 22.5 0.00 0.00 0.00 43 1009.1
20260504232454 20 170 8.0 20.9 0.00 0.00 0.00 43 1009.1
20260504231947 20 208 8.0 19.3 0.00 0.00 0.00 43 1009.2
20260504231440 20 138 6.4 19.3 0.00 0.00 0.00 42 1009.1
20260504230947 21 124 6.4 14.5 0.00 0.00 0.00 42 1009.1
20260504230442 21 166 8.0 17.7 0.00 0.00 0.00 41 1009.2
20260504225925 21 181 6.4 17.7 0.00 0.00 0.00 41 1009.2
20260504225415 21 162 6.4 14.5 0.00 0.00 0.00 41 1009.2
20260504224909 21 157 6.4 19.3 0.00 0.00 0.00 42 1009.2
20260504224415 21 207 8.0 22.5 0.00 0.00 0.00 41 1009.2
20260504223859 21 119 8.0 24.1 0.00 0.00 0.00 40 1009.2
20260504223351 21 160 8.0 24.1 0.00 0.00 0.00 39 1009.2
20260504222849 22 142 8.0 22.5 0.00 0.00 0.00 39 1009.2
20260504222343 22 171 6.4 22.5 0.00 0.00 0.00 40 1009.1
20260504221833 22 153 6.4 17.7 0.00 0.00 0.00 39 1009.2
20260504221333 22 145 6.4 17.7 0.00 0.00 0.00 40 1009.2
20260504220822 22 198 8.0 19.3 0.00 0.00 0.00 39 1009.3
20260504220324 22 162 9.7 24.1 0.00 0.00 0.00 38 1009.3
20260504215811 22 142 8.0 24.1 0.00 0.00 0.00 39 1009.2
20260504215304 22 200 6.4 19.3 0.00 0.00 0.00 37 1009.2
20260504214758 22 148 8.0 19.3 0.00 0.00 0.00 39 1009.2
20260504214251 22 228 6.4 19.3 0.00 0.00 0.00 37 1009.3
20260504213741 22 263 8.0 17.7 0.00 0.00 0.00 38 1009.2
20260504213242 22 185 8.0 17.7 0.00 0.00 0.00 38 1009.2
20260504212742 22 263 6.4 17.7 0.00 0.00 0.00 37 1009.3
20260504212238 22 193 8.0 17.7 0.00 0.00 0.00 38 1009.3
20260504211741 22 217 8.0 16.1 0.00 0.00 0.00 37 1009.2
20260504211242 22 164 8.0 17.7 0.00 0.00 0.00 42 1009.2
20260504210740 22 167 9.7 20.9 0.00 0.00 0.00 38 1009.3
20260504210240 22 235 8.0 20.9 0.00 0.00 0.00 40 1009.3
20260504205737 22 169 9.7 22.5 0.00 0.00 0.00 41 1009.2
20260504205236 22 265 9.7 22.5 0.00 0.00 0.00 37 1009.3
20260504204737 23 171 8.0 19.3 0.00 0.00 0.00 37 1009.3
20260504204238 22 140 8.0 17.7 0.00 0.00 0.00 37 1009.3
20260504203739 22 219 8.0 17.7 0.00 0.00 0.00 38 1009.2
20260504203459 22 195 8.0 14.5 0.00 0.00 0.00 38 1009.2
20260504202740 22 121 8.0 16.1 0.00 0.00 0.00 39 1009.4
20260504202238 22 198 9.7 24.1 0.00 0.00 0.00 39 1009.4
20260504201733 22 258 8.0 24.1 0.00 0.00 0.00 39 1009.5
20260504201234 22 214 9.7 24.1 0.00 0.00 0.00 42 1009.6
20260504201007 22 198 9.7 22.5 0.00 0.00 0.00 38 1009.6
20260504200234 22 147 8.0 22.5 0.00 0.00 0.00 39 1009.7
20260504200213 22 229 8.0 22.5 0.00 0.00 0.00 40 1009.8
20260504195459 22 231 8.0 16.1 0.00 0.00 0.00 41 1009.9
20260504194734 22 127 8.0 19.3 0.00 0.00 0.00 40 1009.8
20260504194233 22 162 8.0 19.3 0.00 0.00 0.00 40 1010.0
20260504193734 22 205 8.0 22.5 0.00 0.00 0.00 42 1010.0
20260504193236 22 186 9.7 25.7 0.00 0.00 0.00 40 1010.1
20260504192736 22 185 8.0 25.7 0.00 0.00 0.00 38 1010.2
20260504192233 22 161 8.0 19.3 0.00 0.00 0.00 39 1010.2
20260504191729 22 206 8.0 25.7 0.00 0.00 0.00 38 1010.3
20260504191230 22 118 9.7 32.2 0.00 0.00 0.00 41 1010.3
20260504190727 22 127 9.7 32.2 0.00 0.00 0.00 39 1010.3
20260504190228 22 288 9.7 24.1 0.00 0.00 0.00 39 1010.4
20260504185729 22 183 9.7 20.9 0.00 0.00 0.00 39 1010.4
20260504185229 22 157 6.4 17.7 0.00 0.00 0.00 40 1010.5
20260504184726 22 153 6.4 11.3 0.00 0.00 0.00 38 1010.5
20260504184228 22 201 8.0 20.9 0.00 0.00 0.00 39 1010.6
20260504183946 22 198 11.3 24.1 0.00 0.00 0.00 44 1010.6
20260504183227 21 207 11.3 25.7 0.00 0.00 0.00 38 1010.6
20260504182958 21 254 9.7 25.7 0.00 0.00 0.00 37 1010.6
20260504182226 21 246 6.4 24.1 0.00 0.00 0.00 38 1010.7
20260504181726 22 128 9.7 24.1 0.00 0.00 0.00 45 1010.9
20260504181228 21 139 11.3 24.1 0.00 0.00 0.00 38 1011.1
20260504180728 21 209 8.0 19.3 0.00 0.00 0.00 39 1011.0
20260504180227 21 290 9.7 24.1 0.00 0.00 0.00 41 1011.1
20260504175728 21 218 8.0 24.1 0.00 0.00 0.00 39 1011.4
20260504175229 21 168 6.4 17.7 0.00 0.00 0.00 42 1011.3
20260504174723 21 200 8.0 16.1 0.00 0.00 0.00 41 1011.3
20260504174225 21 212 9.7 25.7 0.00 0.00 0.00 39 1011.4
20260504173723 21 244 11.3 25.7 0.00 0.00 0.00 40 1011.5
20260504173223 21 215 11.3 29.0 0.00 0.00 0.00 40 1011.6
20260504172723 21 238 6.4 29.0 0.00 0.00 0.00 41 1011.7
20260504172226 21 205 8.0 16.1 0.00 0.00 0.00 37 1011.7
20260504171723 21 260 8.0 17.7 0.00 0.00 0.00 41 1011.8
20260504171222 21 261 8.0 19.3 0.00 0.00 0.00 39 1011.7
20260504170724 21 152 6.4 19.3 0.00 0.00 0.00 39 1011.9
20260504170221 20 208 6.4 14.5 0.00 0.00 0.00 43 1011.9
20260504160120 19 183 6.4 16.1 0.00 0.00 0.00 43 1012.7
20260504151034 18 274 8.0 22.5 0.00 0.00 0.00 40 1013.3
20260504150514 18 237 9.7 22.5 0.00 0.00 0.00 44 1013.2
20260504140908 16 236 8.0 16.1 0.00 0.00 0.00 52 1013.4
20260504140402 16 204 8.0 17.7 0.00 0.00 0.00 52 1013.5
20260504130755 13 247 6.4 17.7 0.00 0.00 0.00 58 1013.9
20260504130253 13 207 4.8 17.7 0.00 0.00 0.00 60 1013.9
20260504120230 11 240 4.8 11.3 0.00 0.00 0.00 68 1013.9
20260504110705 6 265 1.6 9.7 0.00 0.00 0.00 76 1014.4
20260504110424 6 197 1.6 4.8 0.00 0.00 0.00 75 1014.4
20260504100401 3 175 0.0 1.6 0.00 0.00 0.00 82 1014.7
20260504090128 2 174 0.0 0.0 0.00 0.00 0.00 87 1014.5
20260504081120 2 174 0.0 0.0 0.00 0.00 0.00 87 1014.7
20260504080620 2 174 0.0 0.0 0.00 0.00 0.00 86 1014.5
20260504080130 2 174 0.0 0.0 0.00 0.00 0.00 86 1014.5
20260504070121 3 174 0.0 3.2 0.00 0.00 0.00 85 1014.7
20260504060247 3 251 0.0 0.0 0.00 0.00 0.00 84 1014.6
20260504050443 3 251 0.0 0.0 0.00 0.00 0.00 83 1014.7
20260504045942 3 251 0.0 0.0 0.00 0.00 0.00 83 1014.7
20260504045442 3 251 0.0 0.0 0.00 0.00 0.00 83 1014.7
20260504044941 3 251 0.0 0.0 0.00 0.00 0.00 83 1014.7
20260504044437 3 251 0.0 0.0 0.00 0.00 0.00 83 1014.7
20260504043940 3 251 0.0 0.0 0.00 0.00 0.00 82 1014.7
20260504043441 3 250 0.0 0.0 0.00 0.00 0.00 82 1014.7
20260504042938 3 251 0.0 0.0 0.00 0.00 0.00 81 1014.7
20260504042439 4 251 0.0 0.0 0.00 0.00 0.00 81 1014.6
20260504041935 4 251 0.0 0.0 0.00 0.00 0.00 81 1014.5
20260504041435 4 251 0.0 0.0 0.00 0.00 0.00 80 1014.4
20260504040933 4 250 0.0 0.0 0.00 0.00 0.00 80 1014.2
20260504040432 4 251 0.0 0.0 0.00 0.00 0.00 80 1014.2